[[{"header":{"parameterUnit":"m.s-1","parameterCategory":1,"la1":30.2991,"la2":30.254,"lo1":-89.0895,"lo2":-89.0444,"dy":0.0017,"dx":0.0017,"nx":28,"ny":28,"refTime":"2024-07-10T21:00:00:Z","depth":0,"parameterNumber":2,"parameterNumberName":"U-component_of_WINDS"},"data":[0,0,0,0,0,0,0,0,0,0,0,0,0,0,0,0,0,0,0,0,0,0,0,0,0,0,0,0,0,0,0,0,0,0,0,0,0,0,0,0,0,0,0,0,0,0,0,0,0,0,0,0,0,0,0,0,0,0,1.7381,1.7381,0,1.7378,1.7378,1.7378,1.7352,1.7351,1.7351,1.735,1.7349,1.7349,1.735,0,0,0,0,0,0,0,0,0,0,0,0,0,1.7366,1.7366,1.7381,1.7381,1.7381,1.7378,1.7378,1.7378,1.7352,1.7351,1.7351,1.735,1.7349,1.7349,1.735,0,0,0,0,0,0,0,0,0,0,0,0,0,1.7369,1.7366,1.7381,1.7368,1.7367,1.7378,1.7378,1.7378,1.7352,1.7351,1.735,1.7349,1.7348,1.7349,1.735,1.7375,0,0,1.7353,1.7353,0,0,0,0,0,0,0,0,1.7368,1.7369,1.737,1.7369,1.7367,1.7364,1.7372,1.7377,1.7353,1.7358,1.735,1.7349,1.7355,1.7355,1.7357,1.7375,1.7375,1.7353,1.7353,1.7354,1.7354,0,0,0,0,0,0,0,1.7368,1.7369,1.738,1.737,1.7368,1.7362,1.7362,1.7373,1.7362,1.7357,1.7355,1.7355,1.7354,1.7356,1.7356,1.7375,1.7353,1.7353,1.7354,1.7354,1.7411,1.7412,0,0,0,0,0,0,1.737,1.7369,1.738,1.738,1.7366,1.7363,1.7363,1.7366,1.7362,1.736,1.7356,1.7354,1.7355,1.7356,1.7356,1.7384,1.7354,1.7354,1.7355,1.741,1.7411,1.7412,0,0,0,0,0,0,1.737,1.7371,1.738,1.7374,1.7375,1.7365,1.7369,1.7367,1.7369,1.7361,1.7359,1.736,1.7354,1.7355,1.737,1.7383,1.7355,1.7355,1.7409,1.741,1.7412,1.7439,0,0,0,0,0,0,1.7369,1.7371,1.738,1.7374,1.7375,1.7394,1.737,1.7368,1.737,1.7367,1.7364,1.7362,1.7354,1.7369,1.7371,1.7384,1.7356,1.7408,1.741,1.7411,1.7437,1.7442,1.7445,0,0,0,0,0,1.7369,1.7389,1.7381,1.7382,1.7386,1.7395,1.7395,1.7384,1.7371,1.738,1.7375,1.7363,1.7382,1.737,1.7372,1.7386,1.7407,1.7409,1.7411,1.7435,1.7441,1.7445,0,0,0,0,0,0,1.7397,1.7388,1.7379,1.7398,1.7397,1.739,1.7401,1.739,1.7394,1.7391,1.7378,1.7377,1.7393,1.7391,1.7379,1.7409,1.7392,1.7395,1.741,1.7415,1.7419,1.7419,1.7357,0,0,0,0,0,1.7406,1.7413,1.7404,1.7422,1.7422,1.7412,1.7415,1.7406,1.7405,1.7405,1.7401,1.7401,1.7406,1.7411,1.7416,1.7437,1.7435,1.7447,1.7452,1.7455,1.7457,1.7467,1.7472,1.742,1.742,1.742,0,0,1.7424,1.7419,1.7425,1.7427,1.7426,1.7433,1.7412,1.7421,1.7426,1.7407,1.7419,1.7417,1.7416,1.7433,1.7441,1.7432,1.7471,1.7458,1.7461,1.7461,1.747,1.7475,1.7479,1.7421,1.7421,1.7421,0,0,1.7459,1.7457,1.747,1.7469,1.7466,1.7459,1.7463,1.7457,1.7454,1.7467,1.7452,1.7458,1.7469,1.7468,1.747,1.7504,1.7492,1.7506,1.7527,1.7537,1.7541,1.7545,1.7556,1.756,1.7509,1.7509,1.7509,0,1.7481,1.7492,1.7479,1.7489,1.749,1.7472,1.7485,1.7484,1.7484,1.7486,1.7476,1.7488,1.7486,1.7502,1.7511,1.7513,1.7515,1.7506,1.7542,1.7545,1.7548,1.7559,1.7563,1.751,1.751,1.751,1.751,0,1.7519,1.7526,1.7537,1.7536,1.7539,1.7551,1.754,1.7544,1.7535,1.7529,1.7542,1.7539,1.7542,1.7546,1.7538,1.7561,1.7555,1.7544,1.7526,1.7555,1.7564,1.7568,1.7513,1.7512,1.7512,1.7511,0,0,1.7572,1.7563,1.7567,1.7566,1.7562,1.7567,1.7578,1.758,1.7584,1.7584,1.7592,1.7601,1.759,1.7591,1.7583,1.7592,1.7618,1.7579,1.7579,1.7585,1.7642,1.765,1.7655,1.761,1.7611,1.7611,1.7641,0,1.7605,1.7622,1.7611,1.7629,1.7635,1.7618,1.7627,1.7625,1.762,1.7624,1.7619,1.7625,1.761,1.7611,1.7618,1.7613,1.7629,1.7611,1.7617,1.7617,1.7617,1.766,1.7668,1.7697,1.7645,1.7646,1.7646,0,1.7646,1.7647,1.7666,1.7659,1.7661,1.767,1.767,1.7675,1.7673,1.7668,1.7669,1.7658,1.7668,1.7651,1.7664,1.7652,1.7654,1.7652,1.7652,1.7652,1.7633,1.7659,1.7706,1.771,1.7652,1.7652,1.7651,0,1.7682,1.7688,1.77,1.7699,1.7692,1.7698,1.7695,1.7692,1.7694,1.7695,1.7696,1.7698,1.7699,1.7702,1.7691,1.768,1.7705,1.7688,1.7701,1.7702,1.7707,1.7706,1.7753,1.771,1.771,1.771,1.771,0,1.7719,1.7732,1.7715,1.7722,1.7735,1.7722,1.7735,1.7731,1.7728,1.7733,1.7719,1.7725,1.7712,1.7716,1.7709,1.772,1.7721,1.7717,1.7715,1.7718,1.7718,1.7719,1.7716,1.7711,1.7711,1.7711,1.771,0,1.7761,1.7751,1.7762,1.7754,1.7752,1.7762,1.7755,1.7761,1.7754,1.7762,1.7763,1.7753,1.7757,1.7748,1.7751,1.7746,1.7762,1.7757,1.7762,1.776,1.7774,1.7772,1.7821,1.7827,1.7781,1.7782,1.7782,0,1.7785,1.7794,1.7786,1.7788,1.7786,1.7791,1.7792,1.7779,1.7781,1.7779,1.7785,1.7788,1.779,1.7798,1.7791,1.7794,1.7788,1.7805,1.7789,1.7791,1.7787,1.7786,1.7786,1.7809,1.7809,1.781,1.781,0,1.7829,1.7823,1.7825,1.7825,1.7827,1.7827,1.7826,1.7829,1.7815,1.7819,1.7822,1.7824,1.7827,1.783,1.783,1.7828,1.7816,1.7815,1.7818,1.7821,1.7823,1.7821,1.777,1.7814,1.7814,1.7813,1.7813,1.7813,1.7861,1.7867,1.7862,1.7865,1.7863,1.7862,1.7867,1.786,1.7863,1.7864,1.7857,1.7862,1.7859,1.7858,1.7857,1.7861,1.7853,1.7858,1.7859,1.786,1.7861,1.7823,1.7861,1.7861,1.7861,1.7861,1.786,0,1.7903,1.7898,1.7901,1.7899,1.7901,1.789,1.7888,1.789,1.7895,1.7893,1.7894,1.7898,1.7901,1.7894,1.7896,1.79,1.7895,1.7901,1.79,1.7899,1.7869,1.7865,1.7905,1.7905,1.7905,1.7905,1.7905,1.7905,1.7924,1.7934,1.7927,1.7936,1.7931,1.7936,1.7935,1.7934,1.7932,1.7937,1.7939,1.7934,1.7929,1.793,1.7932,1.793,1.7931,1.7938,1.7934,1.7906,1.7902,1.7897,1.7894,1.7939,1.7939,1.7964,1.7965,1.7965]},{"header":{"parameterUnit":"m.s-1","parameterCategory":1,"la1":30.2991,"la2":30.254,"lo1":-89.0895,"lo2":-89.0444,"dy":0.0017,"dx":0.0017,"nx":28,"ny":28,"refTime":"2024-07-10T21:00:00:Z","depth":0,"parameterNumber":3,"parameterNumberName":"V-component_of_WINDS"},"data":[0,0,0,0,0,0,0,0,0,0,0,0,0,0,0,0,0,0,0,0,0,0,0,0,0,0,0,0,0,0,0,0,0,0,0,0,0,0,0,0,0,0,0,0,0,0,0,0,0,0,0,0,0,0,0,0,0,0,1.7948,1.7947,0,1.79,1.79,1.7899,1.7876,1.7876,1.7876,1.7876,1.7823,1.7822,1.782,0,0,0,0,0,0,0,0,0,0,0,0,0,1.8014,1.8013,1.7948,1.7947,1.7947,1.79,1.79,1.7899,1.7876,1.7876,1.7876,1.7876,1.7824,1.7822,1.782,0,0,0,0,0,0,0,0,0,0,0,0,0,1.7978,1.8013,1.7948,1.793,1.7928,1.7901,1.79,1.7899,1.7876,1.7876,1.7876,1.7876,1.7824,1.7822,1.782,1.7806,0,0,1.7813,1.7812,0,0,0,0,0,0,0,0,1.798,1.7975,1.7933,1.7931,1.7929,1.7894,1.7904,1.7868,1.7876,1.7896,1.7876,1.7876,1.7847,1.7843,1.7833,1.7803,1.7801,1.7813,1.7812,1.7811,1.781,0,0,0,0,0,0,0,1.7982,1.7977,1.7929,1.7932,1.793,1.7922,1.7917,1.7897,1.7871,1.7894,1.7892,1.7887,1.7845,1.7836,1.7832,1.78,1.7813,1.7811,1.781,1.7809,1.7755,1.7755,0,0,0,0,0,0,1.7988,1.7979,1.793,1.7927,1.7955,1.7921,1.7916,1.7905,1.7872,1.7866,1.7887,1.7886,1.7839,1.7835,1.783,1.7811,1.7811,1.7809,1.7808,1.7756,1.7755,1.7755,0,0,0,0,0,0,1.799,1.7984,1.7932,1.7953,1.7946,1.792,1.7909,1.7904,1.7895,1.7866,1.7861,1.7882,1.7839,1.7833,1.7812,1.7809,1.7808,1.7806,1.7756,1.7755,1.7755,1.7773,0,0,0,0,0,0,1.7992,1.7985,1.7981,1.7953,1.7945,1.7917,1.7908,1.7903,1.7891,1.789,1.786,1.7856,1.7839,1.7816,1.781,1.7806,1.7804,1.7756,1.7756,1.7755,1.7773,1.7773,1.7774,0,0,0,0,0,1.7994,1.7986,1.798,1.7975,1.7939,1.7917,1.7912,1.7894,1.7891,1.7886,1.7868,1.7856,1.781,1.7814,1.7807,1.7802,1.7756,1.7756,1.7755,1.7772,1.7773,1.7774,0,0,0,0,0,0,1.8013,1.7983,1.7975,1.7959,1.7941,1.7913,1.7906,1.7896,1.7877,1.7876,1.7853,1.7846,1.7827,1.7812,1.7817,1.7786,1.7782,1.778,1.7797,1.7798,1.7798,1.7802,1.7803,0,0,0,0,0,1.8015,1.8001,1.7975,1.7963,1.7954,1.7931,1.7921,1.7909,1.7888,1.788,1.786,1.784,1.782,1.7808,1.7789,1.777,1.7763,1.7764,1.7764,1.7765,1.7764,1.7752,1.7752,1.7754,1.7754,1.7754,0,0,1.8019,1.8001,1.7993,1.7966,1.795,1.7935,1.7925,1.7909,1.7897,1.7877,1.7857,1.7842,1.7817,1.7797,1.7787,1.7784,1.7762,1.7765,1.7766,1.7764,1.7752,1.7751,1.7751,1.7754,1.7754,1.7754,0,0,1.8019,1.8004,1.7992,1.7977,1.7955,1.794,1.7937,1.791,1.79,1.7879,1.7864,1.7848,1.7816,1.7799,1.7786,1.7779,1.7767,1.7773,1.7777,1.7766,1.7765,1.7765,1.7762,1.7761,1.7772,1.7772,1.7772,0,1.8027,1.8005,1.7987,1.7972,1.796,1.7943,1.793,1.7915,1.7887,1.7878,1.7875,1.7834,1.7816,1.7792,1.779,1.778,1.7775,1.7776,1.7767,1.7767,1.7766,1.7763,1.7762,1.7773,1.7773,1.7773,1.7772,0,1.8015,1.7999,1.7992,1.7967,1.7953,1.7939,1.7919,1.7907,1.7896,1.7881,1.7859,1.7837,1.7813,1.7806,1.7795,1.778,1.7779,1.7772,1.7767,1.7767,1.7763,1.7762,1.7774,1.7774,1.7773,1.7773,0,0,1.8025,1.799,1.7988,1.7976,1.7949,1.7936,1.7921,1.7898,1.7889,1.7869,1.7855,1.7828,1.7821,1.7806,1.7793,1.7783,1.7778,1.7777,1.7776,1.7777,1.7759,1.7764,1.7763,1.777,1.777,1.777,1.7761,0,1.8021,1.7994,1.7978,1.7957,1.7942,1.7925,1.7912,1.7893,1.7878,1.7862,1.7845,1.7826,1.7819,1.781,1.78,1.7781,1.7774,1.7781,1.7755,1.7755,1.7762,1.7762,1.7767,1.776,1.776,1.7759,1.7759,0,1.8012,1.7995,1.7973,1.7948,1.7941,1.7929,1.7907,1.7893,1.787,1.786,1.7844,1.783,1.7811,1.7808,1.7781,1.7787,1.7775,1.7764,1.7763,1.776,1.7757,1.7758,1.7757,1.7756,1.7757,1.7757,1.7757,0,1.8021,1.7992,1.7975,1.7966,1.7936,1.7928,1.7915,1.7893,1.7881,1.7861,1.7852,1.783,1.7817,1.78,1.7779,1.7779,1.7754,1.775,1.7744,1.7745,1.7739,1.774,1.7737,1.7733,1.7733,1.7733,1.7733,0,1.8018,1.8005,1.7979,1.7969,1.7953,1.7934,1.7919,1.7904,1.7885,1.787,1.7854,1.784,1.7814,1.7797,1.7781,1.776,1.7755,1.7745,1.7741,1.7746,1.7748,1.7738,1.7738,1.7732,1.7732,1.7732,1.7733,0,1.8026,1.8008,1.7988,1.7962,1.7955,1.7945,1.7922,1.791,1.7894,1.7876,1.787,1.7845,1.7824,1.7802,1.7773,1.7762,1.7742,1.7736,1.775,1.7747,1.7743,1.7743,1.7733,1.773,1.7729,1.7729,1.7729,0,1.8025,1.8015,1.7988,1.7978,1.7965,1.7949,1.7936,1.7916,1.7904,1.7878,1.7869,1.7847,1.7828,1.7794,1.7772,1.7749,1.7742,1.774,1.7739,1.7744,1.7742,1.7742,1.7741,1.7741,1.7741,1.7741,1.7741,0,1.8025,1.8016,1.8,1.798,1.7966,1.7949,1.7931,1.7923,1.79,1.7886,1.7865,1.785,1.7821,1.7798,1.7773,1.7757,1.7745,1.7742,1.7739,1.7745,1.7753,1.7748,1.7751,1.7742,1.7742,1.7742,1.7742,1.7742,1.8027,1.8018,1.7997,1.7979,1.7964,1.7948,1.7936,1.7919,1.7902,1.7877,1.7866,1.7844,1.7821,1.7786,1.7771,1.7752,1.7749,1.7745,1.7744,1.7744,1.7745,1.7756,1.7748,1.7748,1.7747,1.7747,1.7747,0,1.8026,1.8013,1.7996,1.7973,1.7958,1.7949,1.7929,1.7917,1.7899,1.7879,1.7861,1.7836,1.7814,1.7791,1.7767,1.7757,1.775,1.7751,1.7751,1.7748,1.7749,1.7754,1.7756,1.7756,1.7756,1.7756,1.7756,1.7756,1.8024,1.8007,1.7996,1.7971,1.7956,1.7936,1.7926,1.791,1.7894,1.7868,1.785,1.7835,1.7814,1.7788,1.7767,1.776,1.7752,1.7754,1.7746,1.7748,1.7747,1.7747,1.7751,1.7753,1.7753,1.7746,1.7745,1.7745]}]]